Tracking 19245 objects as of 14-Aug-2018
HD Live streaming from Space Station
objects crossing your sky now

FENGYUN 1C DEB

Track FENGYUN 1C DEB now!
10-day predictions


NORAD ID: 30528
Int'l Code: 1999-025AJS
Perigee: 759.0 km
Apogee: 978.2 km
Inclination: 98.2 °
Period: 102.2 minutes
Semi major axis: 7239 km
RCS: 0.0209 m2 (small)
Launch date: May 10, 1999
Source: People's Republic of China (PRC)
Launch site: Taiyaun Space Center, China (TSC)

Note: This is SATELLITE DEBRIS
aabbcc
Your satellite tracking list
Your tracking list is empty




NASA's NSSDC Master Catalog

Two Line Element Set (TLE):
1 30528U 99025AJS 18224.96249109 +.00000082 +00000-0 +62291-4 0  9994
2 30528 098.2462 275.3773 0151385 007.8368 112.3567 14.09393157593723
Source of the keplerian elements: AFSPC